User: anonymous   Login
Location: Unspecified
(0.0000°N, 0.0000°E)
Time: 19:07:20
(UTC+00:00)
Language:

KUIPER-00126 - Orbit

View from above orbital plane
View from above orbital plane
View from above satellite
View from above satellite

Ground track
Ground track

The orbit is defined by the following mean orbital elements,

1 65768U          26145.50116661 +.00000000 +00000-0 +22809-3 0 00003
2 65768  51.8979  60.9291 0001138  72.5315 287.5772 14.79936945    01
Epoch (UTC): 25 May 2026 12:01:40
Eccentricity: 0.0001138
inclination: 51.8979°
perigee height: 629 km
apogee height: 630 km
right ascension of ascending node: 60.9291°
argument of perigee: 72.5315°
revolutions per day: 14.79936945
mean anomaly at epoch: 287.5772°

The dashed part of the orbit path shows where the satellite is in the earth's shadow,  

DLR